Overview Statistics Trail Chart Weather Telemetry Raw packets
 

This is the latest recevied weather packets stored in our database for station/object SV9TNF-57. If no packets are shown the sender has not sent any weather packets the latest 10 day(s).

<< 101 102 103 104 105 106 107 >>
Time Temp. Humidity Pressure Rain* Wind** Luminosity Snow
1787902616 30° C 58% 995.6 hPa 0 mm 2.68 m/s, 228° - -
1787902316 30° C 57% 995.5 hPa 0 mm 2.68 m/s, 185° - -
1787902016 29.44° C 59% 995.6 hPa 0 mm 0.45 m/s, 282° - -
1787901715 29.44° C 59% 995.4 hPa 0 mm 3.13 m/s, 188° - -
1787901415 29.44° C 60% 995.7 hPa 0 mm 5.36 m/s, 152° - -
1787901115 28.89° C 63% 995.6 hPa 0 mm 2.24 m/s, 195° - -
1787900815 29.44° C 64% 995.6 hPa 0 mm 12.07 m/s, 217° - -
1787900515 30.56° C 58% 995.3 hPa 0 mm 5.36 m/s, 239° - -
1787900215 29.44° C 58% 995.5 hPa 0 mm 0 m/s - -
1787899915 28.89° C 65% 995.3 hPa 0 mm 4.47 m/s, 186° - -
1787899615 29.44° C 65% 995.6 hPa 0 mm 1.34 m/s, 178° - -
1787899315 29.44° C 63% 995.6 hPa 0 mm 0 m/s - -
1787899015 29.44° C 64% 995.5 hPa 0 mm 4.47 m/s, 174° - -
1787898715 30° C 59% 995.3 hPa 0 mm 5.36 m/s, 182° - -
1787898414 30° C 50% 995.6 hPa 0 mm 0.45 m/s, 234° - -
1787898114 30° C 46% 995.6 hPa 0 mm 1.34 m/s, 161° - -
1787897814 30° C 46% 995.7 hPa 0 mm 0 m/s - -
1787897514 30.56° C 46% 995.8 hPa 0 mm 1.79 m/s, 123° - -
1787897214 30.56° C 46% 995.7 hPa 0 mm 0 m/s - -
1787896914 30.56° C 45% 995.3 hPa 0 mm 0 m/s - -
1787896614 31.11° C 45% 995.5 hPa 0 mm 0 m/s - -
1787896314 31.11° C 43% 995.4 hPa 0 mm 0 m/s - -
1787896013 31.11° C 44% 995.3 hPa 0 mm 0 m/s - -
1787895714 31.11° C 44% 995.2 hPa 0 mm 0 m/s - -
1787895413 31.11° C 44% 995.2 hPa 0 mm 0 m/s - -

* Rain latest hour (hover to see other rain measurements)
** Current wind speed in m/s (hover to see current wind gust speed)